Location: Area 52 Observatory
(34.2620°N, 119.2590°W)
Time: 21:13:06
(UTC-07:00)

Tiangong 2 - Pass Details

Date: 21 March 2019
Orbit: 378 x 389 km, 42.8° (Epoch: 19 April)

Event Time Altitude Azimuth Distance (km) Brightness Sun altitude
Exits shadow 04:48:54 17° 45° (NE) 1,077 4.0 -27.3°
Drops below altitude 10° 04:50:05 10° 64° (ENE) 1,400 4.9 -27.0°
Sets 04:52:29 0° 81° (E) 2,255 6.2 -26.6°
